Weather History for KFWN - December, 2012

Change the Weather History Date:

Tuesday, December 4, 2012

  Actual Average Record
Temperature  
Mean Temperature 50 °F -  
Max Temperature 60 °F 43 °F 63 °F (2001)
Min Temperature 39 °F 22 °F 0 °F (1976)
Degree Days  
Heating Degree Days 16    
Moisture  
Dew Point 46 °F    
Average Humidity 91    
Maximum Humidity 100    
Minimum Humidity 78    
Precipitation  
Precipitation 0.09 in - - ()
Sea Level Pressure  
Sea Level Pressure 30.14 in    
Wind  
Wind Speed 1 mph (SW)    
Max Wind Speed 5 mph    
Max Gust Speed -    
Visibility 4 miles    
Events Rain    
Averages and records for this station are not official NWS values.
T = Trace of Precipitation, MM = Missing Value Source: NWS Daily Summary

Daily Weather History Graph

Daily Weather History Graph

Search for Another Location

Airport or City:

Trip Planner

Search our weather history database for the weather conditions in past years. The results will help you decide how hot, cold, wet, or windy it might be!

Date:

Astronomy

Dec. 04, 2012 Rise Set
Actual Time 7:08 AM EST 4:29 PM EST
Civil Twilight 6:37 AM EST 5:00 PM EST
Nautical Twilight 6:02 AM EST 5:34 PM EST
Astronomical Twilight 5:29 AM EST 6:08 PM EST
Moon 10:16 PM EST (12/4) 10:59 AM EST (12/4)
Length of Visible Light 10h 23m
Length of Day
9h 21m
Waning Gibbous, 69% of the Moon is Illuminated
Dec 4
Waning Gibbous
Dec 6
Last Quarter
Dec 13
New
Dec 20
First Quarter
Dec 28
Full

Hourly Weather History & Observations

Time (EST) Temp. Dew Point Humidity Pressure Visibility Wind Dir Wind Speed Gust Speed Precip Events Conditions
1:53 AM 39.9 °F 37.9 °F 93% 30.26 in 5.0 mi Calm Calm - N/A   Overcast
2:53 AM 39.9 °F 39.0 °F 97% 30.26 in 6.0 mi Calm Calm - N/A   Overcast
3:53 AM 41.0 °F 39.0 °F 93% 30.25 in 6.0 mi Calm Calm - N/A   Overcast
4:27 AM 42.8 °F 39.2 °F 87% 30.25 in 7.0 mi Calm Calm - N/A   Overcast
4:53 AM 42.1 °F 39.9 °F 92% 30.25 in 5.0 mi Calm Calm - 0.01 in Rain Light Rain
5:22 AM 42.8 °F 39.2 °F 87% 30.24 in 6.0 mi Calm Calm - 0.00 in   Overcast
6:53 AM 43.0 °F 41.0 °F 93% 30.25 in 3.0 mi Calm Calm - 0.04 in Rain Rain
7:36 AM 42.8 °F 42.8 °F 100% 30.25 in 4.0 mi Calm Calm - 0.02 in Rain Light Rain
7:53 AM 43.0 °F 42.1 °F 97% 30.25 in 2.0 mi Calm Calm - 0.03 in Rain Light Rain
8:07 AM 44.6 °F 42.8 °F 93% 30.25 in 3.0 mi Calm Calm - 0.00 in   Overcast
8:53 AM 44.1 °F 42.1 °F 93% 30.25 in 4.0 mi Calm Calm - 0.00 in   Overcast
9:48 AM 46.4 °F 44.6 °F 93% 30.25 in 5.0 mi Calm Calm - N/A   Overcast
9:53 AM 46.0 °F 44.1 °F 93% 30.25 in 5.0 mi Calm Calm - N/A   Overcast
10:26 AM 46.4 °F 44.6 °F 93% 30.23 in 4.0 mi Calm Calm - N/A   Overcast
10:53 AM 48.9 °F 46.0 °F 90% 30.23 in 4.0 mi Calm Calm - N/A   Overcast
11:53 AM 53.1 °F 48.9 °F 86% 30.20 in 4.0 mi SSW 3.5 mph - N/A   Overcast
12:36 PM 55.4 °F 51.8 °F 88% 30.17 in 5.0 mi WSW 4.6 mph - N/A   Haze
12:53 PM 55.9 °F 51.1 °F 84% 30.17 in 5.0 mi Calm Calm - N/A   Haze
1:53 PM 60.1 °F 53.1 °F 78% 30.14 in 6.0 mi Calm Calm - N/A   Haze
2:53 PM 60.1 °F 53.1 °F 78% 30.12 in 7.0 mi WSW 3.5 mph - N/A   Clear
3:53 PM 59.0 °F 53.1 °F 81% 30.11 in 6.0 mi Calm Calm - N/A   Haze
4:53 PM 53.1 °F 50.0 °F 89% 30.10 in 6.0 mi Calm Calm - N/A   Clear
5:19 PM 51.8 °F 48.2 °F 88% 30.09 in 2.0 mi Calm Calm - N/A   Clear
5:48 PM 50.0 °F 48.2 °F 94% 30.08 in 1.8 mi Calm Calm - N/A   Clear
5:49 PM 50.0 °F 48.0 °F 93% 30.08 in 1.8 mi Calm Calm - N/A   Clear
5:56 PM 50.0 °F 48.2 °F 94% 30.07 in 3.0 mi Calm Calm - N/A   Clear
6:24 PM 48.2 °F 46.4 °F 93% 30.07 in 2.5 mi WSW 3.5 mph - N/A   Clear
6:34 PM 48.2 °F 46.4 °F 93% 30.06 in 1.2 mi Calm Calm - N/A   Clear
6:53 PM 48.0 °F 46.9 °F 96% 30.06 in 4.0 mi SW 3.5 mph - N/A   Clear
7:53 PM 51.1 °F 48.9 °F 92% 30.04 in 6.0 mi WSW 4.6 mph - 0.01 in   Clear
8:53 PM 46.9 °F 46.0 °F 97% 30.02 in 4.0 mi WSW 3.5 mph - N/A   Clear
9:27 PM 48.2 °F 46.4 °F 93% 30.01 in 2.5 mi SSW 3.5 mph - N/A   Clear
9:53 PM 48.0 °F 46.9 °F 96% 30.00 in 2.5 mi SW 3.5 mph - N/A   Partly Cloudy
10:43 PM 50.0 °F 48.2 °F 94% 29.98 in 3.0 mi WSW 4.6 mph - N/A   Mostly Cloudy
10:53 PM 48.0 °F 46.9 °F 96% 29.98 in 3.0 mi Calm Calm - N/A   Mostly Cloudy
11:53 PM 50.0 °F 48.0 °F 93% 29.94 in 3.0 mi Calm Calm - 0.00 in   Overcast